EW7099 Weather Reports


time (UTC)temp
C
wind
direction
speed
KPH
gust
KPH
rain 1hr
cm
rain 24hr
cm
rain mn
cm
humidity
%
barometer
mb
20260505194603 35 172 16.1 24.1 0.00 0.00 0.00 55 1007.2
20260505193056 35 154 12.9 20.9 0.00 0.00 0.00 55 1007.4
20260505191600 35 130 16.1 22.5 0.00 0.00 0.00 55 1007.5
20260505190103 35 171 14.5 24.1 0.00 0.00 0.00 56 1007.7
20260505184600 34 161 14.5 25.7 0.00 0.00 0.00 57 1008.0
20260505183051 34 178 16.1 29.0 0.00 0.00 0.00 58 1008.1
20260505181545 35 165 16.1 25.7 0.00 0.00 0.00 58 1008.3
20260505180050 34 153 14.5 22.5 0.00 0.00 0.00 58 1008.3
20260505174543 35 117 11.3 29.0 0.00 0.00 0.00 59 1008.5
20260505173042 35 128 9.7 22.5 0.00 0.00 0.00 59 1008.8
20260505171542 35 119 14.5 22.5 0.00 0.00 0.00 58 1008.9
20260505170036 34 168 11.3 22.5 0.00 0.00 0.00 57 1009.1
20260505164537 34 182 9.7 19.3 0.00 0.00 0.00 57 1009.3
20260505163033 34 125 11.3 19.3 0.00 0.00 0.00 59 1009.3
20260505161531 34 141 9.7 12.9 0.00 0.00 0.00 60 1009.5
20260505153107 33 163 8.0 12.9 0.00 0.00 0.00 60 1009.7
20260505151548 32 101 8.0 14.5 0.00 0.00 0.00 58 1009.8
20260505150106 32 61 8.0 12.9 0.00 0.00 0.00 57 1009.9
20260505124604 24 292 0.0 0.0 0.00 0.00 0.00 79 1008.9
20260505123110 24 292 0.0 0.0 0.00 0.00 0.00 79 1008.8
20260505121552 24 292 0.0 0.0 0.00 0.00 0.00 80 1008.7
20260505120054 24 288 3.2 8.0 0.00 0.00 0.00 79 1008.6
20260505114554 25 296 0.0 3.2 0.00 0.00 0.00 78 1008.6
20260505113051 25 298 3.2 6.4 0.00 0.00 0.00 79 1008.4
20260505111545 25 292 0.0 0.0 0.00 0.00 0.00 78 1008.3
20260505101546 25 294 0.0 0.0 0.00 0.00 0.00 79 1007.9
20260505100043 25 296 0.0 0.0 0.00 0.00 0.00 79 1007.9
20260505094537 25 296 0.0 0.0 0.00 0.00 0.00 78 1007.9
20260505093043 25 296 0.0 0.0 0.00 0.00 0.00 78 1008.0
20260505091542 25 302 0.0 0.0 0.00 0.00 0.00 79 1007.9
20260505090047 25 302 0.0 3.2 0.00 0.00 0.00 80 1007.9
20260505084503 25 307 1.6 4.8 0.00 0.00 0.00 81 1008.1
20260505083004 25 304 0.0 0.0 0.00 0.00 0.00 79 1008.2
20260505081601 25 304 0.0 0.0 0.00 0.00 0.00 79 1008.4
20260505080058 26 304 0.0 0.0 0.00 0.00 0.00 80 1008.5
20260505074556 26 304 0.0 0.0 0.00 0.00 0.00 82 1008.6
20260505073059 26 304 0.0 0.0 0.00 0.00 0.00 80 1008.8
20260505071550 26 304 0.0 0.0 0.00 0.00 0.00 82 1009.0
20260505070054 26 304 0.0 0.0 0.00 0.00 0.00 83 1009.0
20260505064548 26 304 0.0 0.0 0.00 0.00 0.00 83 1009.0
20260505063046 27 304 0.0 0.0 0.00 0.00 0.00 83 1008.9
20260505061543 27 304 0.0 0.0 0.00 0.00 0.00 84 1009.0
20260505060042 27 304 0.0 0.0 0.00 0.00 0.00 84 1009.0
20260505054541 27 304 0.0 3.2 0.00 0.00 0.00 84 1009.2
20260505053039 27 297 1.6 4.8 0.00 0.00 0.00 84 1009.3
20260505051508 27 264 1.6 8.0 0.00 0.00 0.00 84 1009.4
20260505041610 27 272 1.6 9.7 0.00 0.00 0.00 83 1009.5
20260505040101 27 259 3.2 9.7 0.00 0.00 0.00 83 1009.4
20260505034555 27 271 4.8 12.9 0.00 0.00 0.00 83 1009.2
20260505033050 28 267 3.2 11.3 0.00 0.00 0.00 82 1009.1
20260505031549 28 275 3.2 12.9 0.00 0.00 0.00 81 1008.9
20260505030045 28 267 4.8 12.9 0.00 0.00 0.00 80 1008.8
20260505024542 28 240 1.6 9.7 0.00 0.00 0.00 79 1008.7
20260505023043 28 226 4.8 9.7 0.00 0.00 0.00 78 1008.7
20260505021540 28 242 1.6 8.0 0.00 0.00 0.00 77 1008.6
20260505020036 29 257 1.6 9.7 0.00 0.00 0.00 75 1008.5
20260505014536 29 236 0.0 3.2 0.00 0.00 0.00 74 1008.4
20260505013025 29 247 3.2 8.0 0.00 0.00 0.00 74 1008.1
20260505011528 29 234 4.8 11.3 0.00 0.00 0.00 74 1008.0
20260505010015 30 212 4.8 11.3 0.00 0.00 0.00 74 1008.0
20260505004517 30 219 8.0 12.9 0.00 0.00 0.00 73 1007.8
20260505003009 30 192 8.0 16.1 0.00 0.00 0.00 72 1007.7
20260505001507 30 178 11.3 20.9 0.00 0.00 0.00 71 1007.7
20260505000008 31 163 9.7 19.3 0.00 0.00 0.00 69 1007.5
20260504234504 31 213 12.9 20.9 0.00 0.00 0.00 67 1007.6
20260504233108 32 205 11.3 19.3 0.00 0.00 0.00 64 1007.5
20260504231559 32 167 9.7 16.1 0.00 0.00 0.00 61 1007.4
20260504230058 32 206 11.3 16.1 0.00 0.00 0.00 60 1007.4
20260504224609 32 161 12.9 20.9 0.00 0.00 0.00 62 1007.4
20260504223052 32 216 12.9 20.9 0.00 0.00 0.00 59 1007.5
20260504221551 33 184 17.7 24.1 0.00 0.00 0.00 54 1007.7
20260504220058 33 211 11.3 25.7 0.00 0.00 0.00 46 1007.7
20260504214550 34 360 16.1 29.0 0.00 0.00 0.00 42 1007.8
20260504213041 34 224 14.5 29.0 0.00 0.00 0.00 43 1007.8
20260504211518 34 205 16.1 25.7 0.00 0.00 0.00 45 1007.8
20260504210018 35 204 9.7 25.7 0.00 0.00 0.00 44 1007.8
20260504204512 34 167 16.1 30.6 0.00 0.00 0.00 42 1007.9
20260504203013 35 168 17.7 29.0 0.00 0.00 0.00 42 1007.9
20260504201520 35 144 14.5 24.1 0.00 0.00 0.00 43 1008.0